Sugar Grove, IL

6:13 PM CST on February 13, 2016 (GMT -0600)
Aurora Municipal

Weather History for KARR - December, 2013

Change the Weather History Date:

Friday, December 6, 2013

  Actual Average Record
Temperature  
Mean Temperature 15 °F 28 °F  
Max Temperature 20 °F 36 °F 59 °F (1998)
Min Temperature 9 °F 20 °F -10 °F (2007)
Degree Days  
Heating Degree Days 50 37  
Month to date heating degree days 187 216  
Since 1 July heating degree days 1637 1630  
Cooling Degree Days 0 0  
Month to date cooling degree days 0 0  
Year to date cooling degree days 745 655  
Moisture  
Dew Point 8 °F    
Average Humidity 70    
Maximum Humidity 83    
Minimum Humidity 56    
Precipitation  
Precipitation 0.00 in 0.09 in 1.06 in (1998)
Month to date precipitation 0.06 0.55  
Year to date precipitation 32.89 35.45  
Sea Level Pressure  
Sea Level Pressure 30.42 in    
Wind  
Wind Speed 10 mph (NW)    
Max Wind Speed 15 mph    
Max Gust Speed 21 mph    
Visibility 10 miles    
Events      
T = Trace of Precipitation, MM = Missing Value Source: NWS Daily Summary

Daily Weather History Graph

Daily Weather History Graph

Search for Another Location

Airport or City:

Trip Planner

Search our weather history database for the weather conditions in past years. The results will help you decide how hot, cold, wet, or windy it might be!

Date:

Astronomy

Dec. 06, 2013 Rise Set
Actual Time 7:06 AM CST 4:23 PM CST
Civil Twilight 6:35 AM CST 4:54 PM CST
Nautical Twilight 6:00 AM CST 5:29 PM CST
Astronomical Twilight 5:27 AM CST 6:02 PM CST
Moon 10:10 AM CST (12/6) 8:57 PM CST (12/6)
Length of Visible Light 10h 18m
Length of Day
9h 16m
Waxing Crescent, 19% of the Moon is Illuminated
Dec 6
Waxing Crescent
Dec 9
First Quarter
Dec 17
Full
Dec 25
Last Quarter
Jan 1
New

Hourly Weather History & Observations

Time (CST) Temp. Windchill Dew Point Humidity Pressure Visibility Wind Dir Wind Speed Gust Speed Precip Events Conditions
12:52 AM 19.9 °F 7.9 °F 10.9 °F 68% 30.29 in 10.0 mi NW 11.5 mph - N/A   Clear
1:52 AM 19.0 °F 5.6 °F 10.9 °F 71% 30.30 in 10.0 mi WNW 13.8 mph - N/A   Clear
2:52 AM 19.0 °F 7.5 °F 10.0 °F 68% 30.32 in 10.0 mi NW 10.4 mph - N/A   Clear
3:52 AM 18.0 °F 6.1 °F 10.0 °F 71% 30.33 in 10.0 mi NW 10.4 mph - N/A   Clear
4:52 AM 17.1 °F 4.3 °F 10.0 °F 74% 30.33 in 10.0 mi NW 11.5 mph - N/A   Clear
5:52 AM 16.0 °F 3.6 °F 9.0 °F 74% 30.34 in 10.0 mi NW 10.4 mph - N/A   Scattered Clouds
6:52 AM 16.0 °F 3.6 °F 9.0 °F 74% 30.37 in 10.0 mi NW 10.4 mph - N/A   Mostly Cloudy
7:52 AM 16.0 °F 2.9 °F 8.1 °F 71% 30.39 in 10.0 mi NW 11.5 mph - N/A   Mostly Cloudy
8:52 AM 16.0 °F 2.9 °F 7.0 °F 68% 30.41 in 10.0 mi NNW 11.5 mph - N/A   Overcast
9:52 AM 17.1 °F 5.8 °F 8.1 °F 68% 30.43 in 10.0 mi NW 9.2 mph - N/A   Overcast
10:52 AM 17.1 °F 4.3 °F 7.0 °F 65% 30.43 in 10.0 mi NW 11.5 mph - N/A   Overcast
11:52 AM 17.1 °F 2.5 °F 7.0 °F 65% 30.40 in 10.0 mi NNW 15.0 mph - N/A   Partly Cloudy
12:52 PM 18.0 °F 6.1 °F 7.0 °F 62% 30.39 in 10.0 mi NNW 10.4 mph - N/A   Clear
1:52 PM 19.0 °F 6.8 °F 7.0 °F 59% 30.40 in 10.0 mi NNW 11.5 mph - N/A   Overcast
2:52 PM 19.0 °F 7.5 °F 7.0 °F 59% 30.41 in 10.0 mi NW 10.4 mph - N/A   Clear
3:52 PM 18.0 °F 4.8 °F 7.0 °F 62% 30.43 in 10.0 mi NNW 12.7 mph - N/A   Clear
4:52 PM 14.0 °F 3.9 °F 7.0 °F 74% 30.45 in 10.0 mi NW 6.9 mph - N/A   Clear
5:52 PM 12.0 °F - 6.1 °F 77% 30.46 in 10.0 mi Calm Calm - N/A   Clear
6:52 PM 12.0 °F 2.7 °F 6.1 °F 77% 30.48 in 10.0 mi WNW 5.8 mph - N/A   Clear
7:52 PM 10.9 °F -0.8 °F 6.1 °F 81% 30.51 in 10.0 mi WNW 8.1 mph - N/A   Clear
8:52 PM 10.9 °F -0.8 °F 6.1 °F 81% 30.53 in 10.0 mi WNW 8.1 mph - N/A   Clear
9:52 PM 10.9 °F -0.8 °F 5.0 °F 77% 30.55 in 10.0 mi WNW 8.1 mph - N/A   Clear
10:52 PM 10.9 °F -0.8 °F 5.0 °F 77% 30.57 in 10.0 mi NW 8.1 mph - N/A   Partly Cloudy
11:52 PM 10.0 °F 0.4 °F 3.9 °F 76% 30.59 in 10.0 mi NW 5.8 mph - N/A   Clear